Volver al catálogo

STARLINK-5605

ActivoComunicacionesVLEO
NORAD 55411·PAYLOAD·🇺🇸 United States

Lanzado Jan 31, 2023 desde Vandenberg Space Force Base

Loading…

Próximos Pases (próximas 24 horas)

TLE

ActualizadoSource: CelesTrak SupGP

Época: Sep 15, 2026, 01:26 UTC

1 55411C 23014W   26258.06020833  .00054140  00000+0  45357-2 0  2588
2 55411  69.9996 307.1779 0003392 266.1197 200.1859 14.98314755    12

Sigue STARLINK-5605 en tiempo real con AllMySat

Download on the App Store